User: anonymous   Login
Location: Unspecified
(0.0000°N, 0.0000°E)
Time: 01:06:57
(UTC+00:00)
Language:

STARLINK-35148 - Orbit

View from above orbital plane
View from above orbital plane
View from above satellite
View from above satellite

Ground track
Ground track

The orbit is defined by the following mean orbital elements,

1 65844U          26145.26144558 +.00000000 +00000-0 +10344-2 0 00007
2 65844  53.1595  92.1946 0001176  91.0696 269.0442 15.34406098    01
Epoch (UTC): 25 May 2026 06:16:28
Eccentricity: 0.0001176
inclination: 53.1595°
perigee height: 462 km
apogee height: 463 km
right ascension of ascending node: 92.1946°
argument of perigee: 91.0696°
revolutions per day: 15.34406098
mean anomaly at epoch: 269.0442°

The dashed part of the orbit path shows where the satellite is in the earth's shadow,  

DLR